Find OneWeb SL0315

NORAD ID: 49101 Int'l Des: 2021-075 Owner: ONEWEBN Country: UK Constellation: oneweb operational
LEOCIRCULARPOLARONEWEB_TYPE

リアルタイム位置

3D地球を読み込み中...

OneWeb SL0315について

説明を読み込み中...

次回通過

Passes for default location (London). Set your location on the main map for personalized predictions.

高度履歴

Loading altitude history...

軌道要素

1 49101U 21075AC 26124.14341796 -.00000347 00000-0 -99878-3 0 9990
2 49101 87.8987 359.3982 0001912 93.0970 267.0377 13.12444177229395
Epoch: May 4, 2026 • Age: 9 hours

現在のステータス

高度 1231.1 km
速度 7.24 km/s
衛星直下点 -42.57°S, 50.62°W
打ち上げ日 Aug 21, 2021
運用期間 4.7 years
タイプ internet

技術仕様

分類 Payload
質量 148.00 kg
乾燥質量 140.00 kg
総質量 148.00 kg
長さ 1.30 m
直径 1.00 m
スパン 5.00 m
形状 Trapezoid+2 pan
製造者 ONEWUS
バスタイプ ARROW
フェーズステータス In Orbit
所有者/国 ONEWEBN/UK

Most Searched